This is the latest recevied weather packets stored in our database for station/object WX5KDM. If no packets are shown the sender has not sent any weather packets the latest 10 day(s).
| Time | Temp. | Humidity | Pressure | Rain* | Wind** | Luminosity | Snow |
|---|---|---|---|---|---|---|---|
| 1788632627 | 36.67° C | 49% | 1013.7 hPa | 0 mm | - | - | - |
| 1788632323 | 37.22° C | 48% | 1013.8 hPa | 0 mm | - | - | - |
| 1788632023 | 36.67° C | 50% | 1013.8 hPa | 0 mm | - | - | - |
| 1788631721 | 36.67° C | 49% | 1014 hPa | 0 mm | - | - | - |
| 1788631448 | 36.67° C | 51% | 1014 hPa | 0 mm | - | - | - |
| 1788631111 | 36.67° C | 49% | 1013.9 hPa | 0 mm | - | - | - |
| 1788630805 | 36.67° C | 51% | 1014 hPa | 0 mm | - | - | - |
| 1788630501 | 37.22° C | 50% | 1014.2 hPa | 0 mm | - | - | - |
| 1788630197 | 36.67° C | 49% | 1014.2 hPa | 0 mm | - | - | - |
| 1788629892 | 36.67° C | 50% | 1014.2 hPa | 0 mm | - | - | - |
| 1788629588 | 36.67° C | 49% | 1014.5 hPa | 0 mm | - | - | - |
| 1788629288 | 36.67° C | 49% | 1014.2 hPa | 0 mm | - | - | - |
| 1788628986 | 36.67° C | 49% | 1014.5 hPa | 0 mm | - | - | - |
| 1788628683 | 36.67° C | 52% | 1014.4 hPa | 0 mm | - | - | - |
| 1788628379 | 36.67° C | 52% | 1014.5 hPa | 0 mm | - | - | - |
| 1788628075 | 36.11° C | 50% | 1014.4 hPa | 0 mm | - | - | - |
| 1788627802 | 36.11° C | 52% | 1014.4 hPa | 0 mm | - | - | - |
| 1788627469 | 35.56° C | 53% | 1014.5 hPa | 0 mm | - | - | - |
| 1788627166 | 36.11° C | 52% | 1014.5 hPa | 0 mm | - | - | - |
| 1788626865 | 36.67° C | 51% | 1014.7 hPa | 0 mm | - | - | - |
| 1788626560 | 36.67° C | 52% | 1014.6 hPa | 0 mm | - | - | - |
| 1788626256 | 35.56° C | 54% | 1014.8 hPa | 0 mm | - | - | - |
| 1788625973 | 35.56° C | 52% | 1014.7 hPa | 0 mm | - | - | - |
| 1788625648 | 35.56° C | 54% | 1015 hPa | 0 mm | - | - | - |
| 1788625347 | 35° C | 53% | 1015 hPa | 0 mm | - | - | - |
* Rain latest hour (hover to see other rain measurements)
** Current wind speed in m/s (hover to see current wind gust speed)